Time,TemperatureF,DewpointF,PressureIn,WindDirection,WindDirectionDegrees,WindSpeedMPH,WindSpeedGustMPH,Humidity,HourlyPrecipIn,Conditions,Clouds,dailyrainin,SoftwareType,DateUTC
2013-03-25 00:01:00,51.0,44.0,29.99,ENE,59,0.0,0.0,76,0.00,,,0.00,,2013-03-25 07:01:00,
2013-03-25 00:12:00,51.0,44.0,29.99,ENE,59,0.0,0.0,76,0.00,,,0.00,,2013-03-25 07:12:00,
2013-03-25 00:21:00,50.0,43.0,29.99,ENE,59,0.0,1.0,78,0.00,,,0.00,,2013-03-25 07:21:00,
2013-03-25 00:31:00,50.0,43.0,29.99,ENE,59,0.0,0.0,78,0.00,,,0.00,,2013-03-25 07:31:00,
2013-03-25 00:42:00,50.0,43.0,29.99,ENE,59,0.0,0.0,78,0.00,,,0.00,,2013-03-25 07:42:00,
2013-03-25 00:52:00,50.0,43.0,29.98,ENE,58,1.0,1.0,77,0.00,,,0.00,,2013-03-25 07:52:00,
2013-03-25 01:02:00,49.0,42.0,29.98,ENE,59,0.0,0.0,78,0.00,,,0.00,,2013-03-25 08:02:00,
2013-03-25 01:11:00,49.0,42.0,29.98,ENE,59,0.0,0.0,78,0.00,,,0.00,,2013-03-25 08:11:00,
2013-03-25 01:22:00,50.0,43.0,29.98,ENE,59,0.0,1.0,76,0.00,,,0.00,,2013-03-25 08:22:00,
2013-03-25 01:31:00,49.0,42.0,29.98,ENE,59,0.0,0.0,76,0.00,,,0.00,,2013-03-25 08:31:00,
2013-03-25 01:42:00,49.0,42.0,29.98,ENE,59,0.0,0.0,76,0.00,,,0.00,,2013-03-25 08:42:00,
2013-03-25 01:52:00,49.0,42.0,29.98,ENE,59,0.0,0.0,77,0.00,,,0.00,,2013-03-25 08:52:00,
2013-03-25 02:02:00,48.0,42.0,29.98,ENE,59,0.0,0.0,79,0.00,,,0.00,,2013-03-25 09:02:00,
2013-03-25 02:11:00,48.0,42.0,29.98,ENE,59,0.0,0.0,79,0.00,,,0.00,,2013-03-25 09:11:00,
2013-03-25 02:22:00,48.0,41.0,29.98,ENE,59,0.0,1.0,78,0.00,,,0.00,,2013-03-25 09:22:00,
2013-03-25 02:32:00,48.0,41.0,29.97,ENE,59,0.0,0.0,77,0.00,,,0.00,,2013-03-25 09:32:00,
2013-03-25 02:42:00,48.0,41.0,29.97,ENE,59,0.0,0.0,77,0.00,,,0.00,,2013-03-25 09:42:00,
2013-03-25 02:52:00,47.0,40.0,29.97,ENE,59,0.0,1.0,77,0.00,,,0.00,,2013-03-25 09:52:00,
2013-03-25 03:02:00,47.0,39.0,29.97,ENE,59,0.0,0.0,75,0.00,,,0.00,,2013-03-25 10:02:00,
2013-03-25 03:12:00,47.0,39.0,29.97,ENE,59,0.0,0.0,75,0.00,,,0.00,,2013-03-25 10:12:00,
2013-03-25 03:22:00,47.0,39.0,29.97,ENE,59,0.0,2.0,75,0.00,,,0.00,,2013-03-25 10:22:00,
2013-03-25 03:32:00,47.0,39.0,29.97,ENE,59,0.0,1.0,75,0.00,,,0.00,,2013-03-25 10:32:00,
2013-03-25 03:42:00,47.0,39.0,29.97,ENE,59,0.0,1.0,75,0.00,,,0.00,,2013-03-25 10:42:00,
2013-03-25 03:53:00,47.0,40.0,29.97,ENE,59,0.0,1.0,76,0.00,,,0.00,,2013-03-25 10:53:00,
2013-03-25 04:02:00,46.0,40.0,29.96,ENE,59,0.0,2.0,78,0.00,,,0.00,,2013-03-25 11:02:00,
2013-03-25 04:12:00,46.0,40.0,29.96,ENE,59,0.0,2.0,78,0.00,,,0.00,,2013-03-25 11:12:00,
2013-03-25 04:22:00,46.0,40.0,29.96,ENE,59,1.0,1.0,79,0.00,,,0.00,,2013-03-25 11:22:00,
2013-03-25 04:31:00,46.0,40.0,29.96,ENE,59,0.0,0.0,80,0.00,,,0.00,,2013-03-25 11:31:00,
2013-03-25 04:42:00,46.0,40.0,29.96,ENE,59,0.0,0.0,80,0.00,,,0.00,,2013-03-25 11:42:00,
2013-03-25 04:52:00,45.0,40.0,29.96,ENE,59,0.0,0.0,81,0.00,,,0.00,,2013-03-25 11:52:00,
2013-03-25 05:02:00,45.0,40.0,29.96,ENE,59,0.0,1.0,81,0.00,,,0.00,,2013-03-25 12:02:00,
2013-03-25 05:12:00,45.0,40.0,29.96,ENE,59,0.0,1.0,81,0.00,,,0.00,,2013-03-25 12:12:00,
2013-03-25 05:22:00,45.0,40.0,29.96,ENE,59,0.0,1.0,82,0.00,,,0.00,,2013-03-25 12:22:00,
2013-03-25 05:32:00,44.0,39.0,29.97,ENE,59,0.0,1.0,84,0.00,,,0.00,,2013-03-25 12:32:00,
2013-03-25 05:42:00,44.0,39.0,29.97,ENE,59,0.0,1.0,84,0.00,,,0.00,,2013-03-25 12:42:00,
2013-03-25 05:53:00,44.0,40.0,29.97,ENE,59,0.0,1.0,85,0.00,,,0.00,,2013-03-25 12:53:00,
2013-03-25 06:02:00,43.0,39.0,29.97,ENE,59,0.0,0.0,85,0.00,,,0.00,,2013-03-25 13:02:00,
2013-03-25 06:12:00,43.0,39.0,29.97,ENE,59,0.0,0.0,85,0.00,,,0.00,,2013-03-25 13:12:00,
2013-03-25 06:22:00,43.0,39.0,29.97,ENE,59,0.0,0.0,87,0.00,,,0.00,,2013-03-25 13:22:00,
2013-03-25 06:31:00,43.0,39.0,29.97,NE,43,1.0,3.0,87,0.00,,,0.00,,2013-03-25 13:31:00,
2013-03-25 06:42:00,43.0,39.0,29.97,NE,43,1.0,3.0,87,0.00,,,0.00,,2013-03-25 13:42:00,
2013-03-25 06:52:00,42.0,39.0,29.97,ENE,58,1.0,2.0,88,0.00,,,0.00,,2013-03-25 13:52:00,
2013-03-25 07:02:00,43.0,40.0,29.97,ENE,58,0.0,2.0,90,0.00,,,0.00,,2013-03-25 14:02:00,
2013-03-25 07:12:00,43.0,40.0,29.97,ENE,58,0.0,2.0,90,0.00,,,0.00,,2013-03-25 14:12:00,
2013-03-25 07:22:00,42.0,39.0,29.97,ENE,58,0.0,0.0,90,0.00,,,0.00,,2013-03-25 14:22:00,
2013-03-25 07:32:00,42.0,40.0,29.97,ENE,58,0.0,1.0,92,0.00,,,0.00,,2013-03-25 14:32:00,
2013-03-25 07:42:00,42.0,40.0,29.97,ENE,58,0.0,1.0,92,0.00,,,0.00,,2013-03-25 14:42:00,
2013-03-25 07:52:00,43.0,41.0,29.97,NE,49,1.0,3.0,91,0.00,,,0.00,,2013-03-25 14:52:00,
2013-03-25 08:02:00,44.0,41.0,29.97,NE,35,1.0,3.0,90,0.00,,,0.00,,2013-03-25 15:02:00,
2013-03-25 08:12:00,44.0,41.0,29.97,NE,35,1.0,3.0,90,0.00,,,0.00,,2013-03-25 15:12:00,
2013-03-25 08:22:00,43.0,40.0,29.98,NW,326,0.0,1.0,88,0.00,,,0.00,,2013-03-25 15:22:00,
2013-03-25 08:32:00,43.0,40.0,29.97,NW,326,0.0,1.0,89,0.00,,,0.00,,2013-03-25 15:32:00,
2013-03-25 08:42:00,43.0,40.0,29.97,NW,326,0.0,1.0,89,0.00,,,0.00,,2013-03-25 15:42:00,
2013-03-25 08:53:00,43.0,41.0,29.98,NW,326,0.0,0.0,91,0.00,,,0.00,,2013-03-25 15:53:00,
2013-03-25 09:02:00,43.0,40.0,29.98,NW,325,1.0,2.0,88,0.00,,,0.00,,2013-03-25 16:02:00,
2013-03-25 09:12:00,43.0,40.0,29.98,NW,325,1.0,2.0,88,0.00,,,0.00,,2013-03-25 16:12:00,
2013-03-25 09:22:00,43.0,40.0,29.98,NW,325,1.0,2.0,88,0.00,,,0.00,,2013-03-25 16:22:00,
2013-03-25 09:32:00,45.0,41.0,29.99,WSW,240,2.0,3.0,87,0.00,,,0.00,,2013-03-25 16:32:00,
2013-03-25 09:42:00,45.0,41.0,29.99,WSW,240,2.0,3.0,87,0.00,,,0.00,,2013-03-25 16:42:00,
2013-03-25 09:52:00,46.0,42.0,29.99,South,184,1.0,2.0,85,0.00,,,0.00,,2013-03-25 16:52:00,
2013-03-25 10:02:00,47.0,42.0,30.00,SSE,150,2.0,3.0,82,0.00,,,0.00,,2013-03-25 17:02:00,
2013-03-25 10:12:00,47.0,42.0,30.00,SSE,150,2.0,3.0,82,0.00,,,0.00,,2013-03-25 17:12:00,
2013-03-25 10:22:00,49.0,43.0,30.00,SW,232,3.0,5.0,81,0.00,,,0.00,,2013-03-25 17:22:00,
2013-03-25 10:31:00,49.0,44.0,30.01,SW,220,1.0,4.0,84,0.00,,,0.00,,2013-03-25 17:31:00,
2013-03-25 10:42:00,49.0,44.0,30.01,SW,220,1.0,4.0,84,0.00,,,0.00,,2013-03-25 17:42:00,
2013-03-25 10:52:00,50.0,43.0,30.01,SSW,198,2.0,5.0,78,0.00,,,0.00,,2013-03-25 17:52:00,
2013-03-25 11:03:00,51.0,44.0,30.00,SE,145,3.0,4.0,76,0.00,,,0.00,,2013-03-25 18:03:00,
2013-03-25 11:12:00,51.0,44.0,30.00,SE,145,3.0,4.0,76,0.00,,,0.00,,2013-03-25 18:12:00,
2013-03-25 11:22:00,52.0,43.0,30.01,SW,218,2.0,5.0,72,0.00,,,0.00,,2013-03-25 18:22:00,
2013-03-25 11:32:00,53.0,45.0,30.01,WSW,249,1.0,7.0,73,0.00,,,0.00,,2013-03-25 18:32:00,
2013-03-25 11:42:00,53.0,45.0,30.01,WSW,249,1.0,7.0,73,0.00,,,0.00,,2013-03-25 18:42:00,
2013-03-25 11:53:00,54.0,46.0,30.01,SSW,194,4.0,6.0,75,0.00,,,0.00,,2013-03-25 18:53:00,
2013-03-25 12:02:00,53.0,45.0,30.01,SW,217,2.0,4.0,74,0.00,,,0.00,,2013-03-25 19:02:00,
2013-03-25 12:12:00,53.0,45.0,30.01,SW,217,2.0,4.0,74,0.00,,,0.00,,2013-03-25 19:12:00,
2013-03-25 12:22:00,54.0,46.0,30.00,SSW,196,1.0,5.0,75,0.00,,,0.00,,2013-03-25 19:22:00,
2013-03-25 12:32:00,54.0,46.0,30.00,SSW,196,1.0,5.0,75,0.00,,,0.00,,2013-03-25 19:32:00,
2013-03-25 12:42:00,54.0,46.0,30.00,SSW,196,1.0,5.0,75,0.00,,,0.00,,2013-03-25 19:42:00,
2013-03-25 12:52:00,56.0,47.0,30.01,WNW,300,1.0,5.0,71,0.00,,,0.00,,2013-03-25 19:52:00,
2013-03-25 13:02:00,55.0,46.0,30.01,SW,216,3.0,5.0,71,0.00,,,0.00,,2013-03-25 20:02:00,
2013-03-25 13:12:00,55.0,46.0,30.01,SW,216,3.0,5.0,71,0.00,,,0.00,,2013-03-25 20:12:00,
2013-03-25 13:22:00,56.0,47.0,30.00,SSW,202,2.0,5.0,72,0.00,,,0.00,,2013-03-25 20:22:00,
2013-03-25 13:32:00,56.0,46.0,29.99,South,169,2.0,6.0,68,0.00,,,0.00,,2013-03-25 20:32:00,
2013-03-25 13:42:00,56.0,46.0,29.99,South,169,2.0,6.0,68,0.00,,,0.00,,2013-03-25 20:42:00,
2013-03-25 13:52:00,57.0,45.0,29.98,SE,144,2.0,6.0,64,0.00,,,0.00,,2013-03-25 20:52:00,
2013-03-25 14:02:00,56.0,44.0,29.98,SSE,147,3.0,5.0,64,0.00,,,0.00,,2013-03-25 21:02:00,
2013-03-25 14:11:00,56.0,44.0,29.98,SSE,147,3.0,5.0,64,0.00,,,0.00,,2013-03-25 21:11:00,
2013-03-25 14:22:00,56.0,43.0,29.98,SE,146,1.0,7.0,62,0.00,,,0.00,,2013-03-25 21:22:00,
2013-03-25 14:32:00,56.0,44.0,29.97,ESE,109,3.0,7.0,64,0.00,,,0.00,,2013-03-25 21:32:00,
2013-03-25 14:42:00,56.0,44.0,29.97,ESE,109,3.0,7.0,64,0.00,,,0.00,,2013-03-25 21:42:00,
2013-03-25 14:52:00,56.0,45.0,29.97,South,182,2.0,9.0,67,0.00,,,0.00,,2013-03-25 21:52:00,
2013-03-25 15:02:00,57.0,45.0,29.97,South,184,4.0,9.0,65,0.00,,,0.00,,2013-03-25 22:02:00,
2013-03-25 15:12:00,57.0,45.0,29.97,South,184,4.0,9.0,65,0.00,,,0.00,,2013-03-25 22:12:00,
2013-03-25 15:22:00,57.0,46.0,29.96,ESE,119,5.0,11.0,66,0.00,,,0.00,,2013-03-25 22:22:00,
2013-03-25 15:32:00,56.0,45.0,29.96,South,177,4.0,12.0,67,0.00,,,0.00,,2013-03-25 22:32:00,
2013-03-25 15:42:00,56.0,45.0,29.96,South,177,4.0,12.0,67,0.00,,,0.00,,2013-03-25 22:42:00,
2013-03-25 15:52:00,55.0,45.0,29.97,SW,231,3.0,8.0,70,0.00,,,0.00,,2013-03-25 22:52:00,
2013-03-25 16:02:00,53.0,44.0,29.96,SSE,167,5.0,10.0,72,0.00,,,0.00,,2013-03-25 23:02:00,
2013-03-25 16:11:00,53.0,44.0,29.96,SSE,167,5.0,10.0,72,0.00,,,0.00,,2013-03-25 23:11:00,
2013-03-25 16:22:00,52.0,44.0,29.96,South,189,3.0,9.0,73,0.00,,,0.00,,2013-03-25 23:22:00,
2013-03-25 16:32:00,53.0,44.0,29.96,SSE,164,4.0,7.0,71,0.00,,,0.00,,2013-03-25 23:32:00,
2013-03-25 16:42:00,53.0,44.0,29.96,SSE,164,4.0,7.0,71,0.00,,,0.00,,2013-03-25 23:42:00,
2013-03-25 16:52:00,53.0,43.0,29.95,South,182,4.0,8.0,68,0.00,,,0.00,,2013-03-25 23:52:00,
2013-03-25 17:02:00,54.0,44.0,29.94,SSE,156,5.0,10.0,68,0.00,,,0.00,,2013-03-26 00:02:00,
2013-03-25 17:11:00,54.0,44.0,29.94,SSE,156,5.0,10.0,68,0.00,,,0.00,,2013-03-26 00:11:00,
2013-03-25 17:22:00,54.0,43.0,29.94,South,180,3.0,6.0,65,0.00,,,0.00,,2013-03-26 00:22:00,
2013-03-25 17:31:00,54.0,43.0,29.94,South,175,3.0,6.0,65,0.00,,,0.00,,2013-03-26 00:31:00,
2013-03-25 17:42:00,54.0,43.0,29.94,South,175,3.0,6.0,65,0.00,,,0.00,,2013-03-26 00:42:00,
2013-03-25 17:52:00,53.0,42.0,29.94,ESE,112,4.0,9.0,66,0.00,,,0.00,,2013-03-26 00:52:00,
2013-03-25 18:02:00,53.0,43.0,29.94,SE,126,6.0,10.0,70,0.00,,,0.00,,2013-03-26 01:02:00,
2013-03-25 18:11:00,53.0,43.0,29.94,SE,126,6.0,10.0,70,0.00,,,0.00,,2013-03-26 01:11:00,
2013-03-25 18:22:00,52.0,44.0,29.93,South,178,5.0,7.0,73,0.00,,,0.00,,2013-03-26 01:22:00,
2013-03-25 18:32:00,51.0,43.0,29.94,SE,131,4.0,8.0,74,0.00,,,0.00,,2013-03-26 01:32:00,
2013-03-25 18:42:00,51.0,43.0,29.94,SE,131,4.0,8.0,74,0.00,,,0.00,,2013-03-26 01:42:00,
2013-03-25 18:52:00,50.0,43.0,29.93,South,174,4.0,7.0,76,0.00,,,0.00,,2013-03-26 01:52:00,
2013-03-25 19:01:00,49.0,42.0,29.93,SE,140,4.0,7.0,78,0.00,,,0.00,,2013-03-26 02:01:00,
2013-03-25 19:11:00,49.0,42.0,29.93,SE,140,4.0,7.0,78,0.00,,,0.00,,2013-03-26 02:11:00,
2013-03-25 19:22:00,49.0,42.0,29.94,South,185,5.0,7.0,78,0.00,,,0.00,,2013-03-26 02:22:00,
2013-03-25 19:31:00,48.0,42.0,29.95,SE,144,3.0,7.0,81,0.00,,,0.00,,2013-03-26 02:31:00,
2013-03-25 19:42:00,48.0,42.0,29.95,SE,144,3.0,7.0,81,0.00,,,0.00,,2013-03-26 02:42:00,
2013-03-25 19:52:00,48.0,43.0,29.95,SE,132,2.0,4.0,82,0.00,,,0.00,,2013-03-26 02:52:00,
2013-03-25 20:02:00,47.0,42.0,29.95,SW,224,2.0,8.0,84,0.00,,,0.00,,2013-03-26 03:02:00,
2013-03-25 20:11:00,47.0,42.0,29.95,SW,224,2.0,8.0,84,0.00,,,0.00,,2013-03-26 03:11:00,
2013-03-25 20:22:00,47.0,43.0,29.95,SSE,150,1.0,4.0,85,0.00,,,0.00,,2013-03-26 03:22:00,
2013-03-25 20:33:00,47.0,43.0,29.95,SSE,149,1.0,3.0,86,0.00,,,0.00,,2013-03-26 03:33:00,
2013-03-25 20:42:00,47.0,43.0,29.95,SSE,149,1.0,3.0,86,0.00,,,0.00,,2013-03-26 03:42:00,
2013-03-25 20:53:00,47.0,43.0,29.94,SSE,149,2.0,3.0,86,0.00,,,0.00,,2013-03-26 03:53:00,
2013-03-25 21:03:00,47.0,43.0,29.93,ESE,109,1.0,3.0,86,0.00,,,0.00,,2013-03-26 04:03:00,
2013-03-25 21:12:00,47.0,43.0,29.93,ESE,109,1.0,3.0,86,0.00,,,0.00,,2013-03-26 04:12:00,
2013-03-25 21:22:00,47.0,43.0,29.93,SSE,167,2.0,4.0,86,0.00,,,0.00,,2013-03-26 04:22:00,
2013-03-25 21:32:00,47.0,43.0,29.93,ESE,104,3.0,6.0,85,0.00,,,0.00,,2013-03-26 04:32:00,
2013-03-25 21:42:00,47.0,43.0,29.93,ESE,104,3.0,6.0,85,0.00,,,0.00,,2013-03-26 04:42:00,
2013-03-25 21:52:00,47.0,43.0,29.94,West,267,1.0,2.0,87,0.00,,,0.00,,2013-03-26 04:52:00,
2013-03-25 22:02:00,47.0,44.0,29.95,North,11,1.0,2.0,88,0.00,,,0.00,,2013-03-26 05:02:00,
2013-03-25 22:11:00,47.0,44.0,29.95,North,11,1.0,2.0,88,0.00,,,0.00,,2013-03-26 05:11:00,
2013-03-25 22:22:00,46.0,43.0,29.95,NNE,15,1.0,3.0,88,0.00,,,0.00,,2013-03-26 05:22:00,
2013-03-25 22:32:00,46.0,43.0,29.96,NNE,15,0.0,1.0,89,0.00,,,0.00,,2013-03-26 05:32:00,
2013-03-25 22:42:00,46.0,43.0,29.96,NNE,15,0.0,1.0,89,0.00,,,0.00,,2013-03-26 05:42:00,
2013-03-25 22:52:00,45.0,42.0,29.97,North,10,1.0,3.0,89,0.00,,,0.00,,2013-03-26 05:52:00,
2013-03-25 23:01:00,45.0,42.0,29.98,North,10,1.0,2.0,90,0.00,,,0.00,,2013-03-26 06:01:00,
2013-03-25 23:12:00,45.0,42.0,29.98,North,10,1.0,2.0,90,0.00,,,0.00,,2013-03-26 06:12:00,
2013-03-25 23:21:00,44.0,42.0,29.98,North,10,0.0,1.0,91,0.00,,,0.00,,2013-03-26 06:21:00,
2013-03-25 23:31:00,44.0,42.0,29.97,East,86,1.0,3.0,92,0.00,,,0.00,,2013-03-26 06:31:00,
2013-03-25 23:42:00,44.0,42.0,29.97,East,86,1.0,3.0,92,0.00,,,0.00,,2013-03-26 06:42:00,
2013-03-25 23:52:00,44.0,42.0,29.97,East,86,0.0,1.0,92,0.00,,,0.00,,2013-03-26 06:52:00,